Theta_e
319 320 321 320 319 319 318 317 317 318 318 317 317 316 316 317 317 317 317 316 316 315 315 315 315 313 312 312 312 312 313 314 315 315 316 316 315 314 312 312 314 313 311 310 311 307 297 293 293 293 293 294
318 320 320 320 319 319 318 316 316 316 316 316 317 316 316 316 316 317 317 316 316 314 314 315 315 314 312 312 312 312 312 313 314 315 316 316 314 314 313 312 313 313 312 311 311 310 302 293 293 293 293 293
317 318 318 319 319 319 318 317 316 315 314 314 315 315 316 316 316 316 316 316 316 314 314 314 315 314 312 312 312 311 312 312 313 314 314 315 314 314 313 312 312 313 312 311 311 311 306 297 293 293 292 292
315 315 316 317 317 318 318 317 316 315 314 313 312 312 313 315 316 316 316 316 316 315 314 314 315 314 312 312 312 311 311 312 313 313 314 314 314 314 313 312 312 313 312 312 311 310 309 302 297 296 295 293
312 313 313 314 315 316 316 316 316 316 315 314 312 310 310 312 314 316 316 316 316 315 314 314 314 314 313 311 311 311 311 311 312 313 313 314 314 314 313 312 311 312 312 312 311 310 310 306 303 302 299 296
310 311 311 312 313 313 314 315 315 315 315 315 314 312 310 309 310 313 314 316 316 315 315 314 313 313 313 312 311 311 311 311 311 312 313 313 314 314 313 312 311 311 312 311 311 310 310 309 307 306 303 300
306 307 309 310 310 311 312 312 313 314 314 314 315 314 312 310 309 310 313 315 315 315 315 314 313 313 312 312 311 310 311 311 310 311 312 312 314 314 313 312 310 310 311 311 311 310 310 309 308 307 306 303
299 301 303 305 306 308 309 310 311 312 312 312 313 314 314 313 311 310 312 314 314 315 315 314 314 313 312 311 311 310 310 311 310 310 311 312 313 313 313 312 311 310 310 310 310 310 309 308 308 307 306 305
296 296 297 299 300 302 304 307 308 309 310 310 311 312 313 314 313 312 311 313 313 314 314 314 314 313 313 312 311 310 309 310 309 309 310 311 312 313 312 311 311 310 310 309 309 309 308 308 307 307 306 305
295 295 295 295 296 296 298 300 302 304 306 308 309 310 311 312 313 313 312 312 312 313 313 313 314 313 313 312 312 311 310 309 309 309 310 310 311 312 312 311 311 310 309 308 308 308 308 307 307 306 306 305
295 295 295 295 295 295 295 295 296 297 299 302 305 307 309 309 310 311 311 312 312 312 312 312 313 313 313 313 313 312 311 310 309 308 308 310 310 311 312 311 311 310 309 308 307 307 307 307 306 306 305 304
293 294 294 294 294 295 294 294 294 294 295 296 298 301 304 306 308 309 309 310 311 312 312 312 312 313 313 313 313 312 312 311 310 309 308 308 309 310 311 311 311 310 309 307 307 307 307 306 305 305 304 304
292 292 292 293 293 294 294 294 294 294 294 294 294 295 298 301 304 306 307 308 309 311 312 312 312 312 312 313 313 313 312 311 310 309 308 308 308 309 310 310 310 310 308 307 307 307 306 306 305 305 304 303
290 291 291 291 291 292 292 292 293 293 293 293 293 293 294 295 297 300 304 306 307 308 309 310 311 311 312 312 312 312 313 312 311 310 309 308 307 308 309 310 310 310 309 308 307 306 306 305 305 304 304 302
289 290 290 290 290 290 290 291 291 292 292 292 292 292 293 293 294 295 298 301 304 305 307 308 309 311 311 311 311 312 312 313 312 310 309 309 307 307 308 309 309 309 309 308 307 307 306 305 305 304 303 301
288 288 288 289 289 289 289 289 290 290 290 291 291 291 292 292 293 293 294 296 299 302 304 306 307 308 310 310 311 311 312 312 312 311 310 310 308 307 307 308 309 309 309 308 308 307 306 305 305 304 303 299
288 288 288 288 288 289 289 289 289 289 289 290 290 290 291 291 292 292 293 293 295 298 301 303 305 306 307 308 310 311 311 311 312 311 310 311 309 307 307 307 308 308 308 308 307 306 306 305 305 304 303 298
288 288 288 288 288 289 289 289 289 289 289 289 289 289 290 290 291 291 292 292 293 295 297 300 302 304 305 306 307 309 309 310 311 310 310 311 310 308 307 307 307 307 307 307 306 306 306 305 305 304 303 299
287 287 287 288 288 289 289 289 289 289 289 289 289 289 289 289 290 291 291 292 293 294 295 297 299 301 303 304 305 307 307 308 310 310 310 310 310 309 308 307 307 307 307 306 306 305 305 305 305 304 304 302
287 287 287 287 288 288 289 289 289 289 289 289 289 289 289 289 290 290 291 293 294 294 295 296 297 298 300 302 304 305 307 307 308 309 310 309 309 310 309 308 307 307 306 306 305 305 304 304 304 304 304 303
287 287 287 287 287 287 288 288 289 289 289 289 289 289 289 289 289 289 290 291 293 294 294 295 295 296 298 300 302 304 306 307 307 308 308 308 309 309 309 308 308 307 306 306 305 305 304 304 304 304 303 303
287 287 287 287 287 287 288 288 288 288 289 289 289 289 289 288 288 289 289 289 290 292 293 294 294 295 295 297 299 302 304 306 307 307 308 308 308 308 308 308 308 307 306 305 305 305 305 303 303 303 303 303
286 287 287 287 287 287 288 288 288 289 289 289 289 289 289 288 288 288 288 288 289 289 290 291 293 294 294 295 296 298 301 304 305 306 307 308 308 308 308 308 308 307 306 305 305 305 305 304 303 302 302 303
286 286 286 287 287 288 288 288 289 289 289 289 289 289 288 288 288 288 288 288 288 288 289 289 290 291 292 293 294 295 297 300 303 304 305 306 307 308 307 307 307 307 306 306 305 305 305 305 304 303 302 302
285 285 285 286 287 288 288 288 288 288 289 289 288 288 288 288 288 288 288 288 288 288 288 288 288 289 291 292 293 293 294 296 299 302 302 303 304 306 307 307 307 307 306 306 305 305 305 305 305 304 302 301
285 285 285 285 286 287 287 287 287 287 288 288 288 288 288 288 288 288 288 288 288 288 288 288 287 288 291 292 293 293 293 293 295 298 301 301 302 303 304 305 306 305 305 305 305 305 304 304 304 304 303 302
285 285 285 285 285 286 286 286 286 287 287 287 287 287 287 288 288 288 288 288 288 288 288 288 288 288 290 291 292 292 292 292 293 295 298 299 300 300 301 303 304 303 303 304 304 303 302 301 302 301 301 302
285 285 285 285 285 285 285 285 285 286 286 287 287 287 287 287 287 287 288 288 288 288 288 288 288 288 288 289 290 291 291 292 292 293 294 296 298 298 299 300 302 302 302 302 302 300 299 300 299 298 300 302
285 285 285 285 285 284 284 284 284 285 285 286 286 286 286 286 287 287 287 287 287 288 288 288 288 288 288 287 288 288 289 290 291 292 293 294 295 296 297 298 299 301 301 301 300 300 299 298 297 298 300 300
285 285 285 284 284 284 284 284 284 285 285 286 286 286 285 285 285 286 286 287 287 287 288 288 288 288 288 288 287 287 287 288 290 291 292 292 293 294 296 296 297 298 300 300 300 299 299 299 299 299 299 297
284 284 284 283 283 283 284 285 284 285 285 285 285 285 285 285 285 285 286 287 287 287 288 288 288 288 288 288 287 287 287 287 287 289 291 292 292 293 294 295 295 296 298 299 299 298 299 299 300 299 298 298
Wind_Speed
9 12 13 13 12 12 12 13 13 13 13 13 14 15 17 16 16 17 17 18 17 17 17 15 16 17 17 18 17 17 17 17 18 18 18 18 16 16 18 18 16 17 21 19 15 11 11 13 14 15 16 17
7 10 12 13 13 13 13 14 15 15 15 14 14 16 19 17 17 19 19 20 20 19 18 17 17 16 17 18 18 18 19 18 18 19 19 18 18 17 18 19 17 18 23 23 18 14 12 12 12 13 14 15
4 6 8 11 13 13 12 13 14 16 17 17 16 17 20 20 19 21 21 22 23 21 19 19 18 18 18 17 17 18 19 19 19 20 20 20 20 19 18 19 19 19 22 23 21 19 17 15 12 11 12 14
5 5 6 7 9 11 13 14 14 15 18 19 19 19 20 22 21 22 23 23 23 23 22 21 20 21 20 17 17 17 19 19 19 21 21 21 21 20 19 19 20 20 23 23 24 23 20 19 16 14 13 13
6 7 7 8 8 9 11 13 15 17 19 20 21 20 20 22 23 23 24 24 24 25 24 23 23 23 22 19 18 19 19 19 20 21 22 22 22 21 20 20 21 23 27 26 25 25 23 22 20 18 16 15
7 8 8 9 10 10 10 11 13 15 16 19 22 22 20 21 24 25 25 25 24 25 26 26 26 25 24 21 20 21 20 20 21 22 22 22 22 22 22 22 24 27 30 29 28 28 27 25 24 23 21 18
9 10 10 10 11 11 12 12 13 14 15 16 17 20 21 21 23 26 27 27 26 26 27 28 28 28 28 26 23 23 22 22 24 23 23 23 22 22 23 24 28 31 33 33 33 31 30 29 27 26 24 22
14 12 12 12 12 13 14 14 14 16 17 17 16 16 19 21 22 25 28 29 29 29 29 29 31 31 31 30 28 26 24 25 26 26 24 24 24 23 25 28 30 33 35 37 38 33 31 31 30 28 26 25
20 19 17 15 14 14 15 16 17 17 18 18 18 17 17 19 20 23 28 31 31 31 31 30 31 32 32 32 31 30 28 26 27 27 26 25 26 25 28 30 32 33 36 38 39 35 33 32 32 30 27 26
23 22 22 21 20 18 17 16 17 18 19 20 20 19 19 21 21 21 24 29 33 33 33 33 32 32 33 34 33 33 32 30 28 29 29 28 28 29 30 32 33 34 36 38 38 35 34 33 31 30 28 25
24 24 24 24 24 23 22 21 20 19 19 20 20 21 21 22 23 23 22 23 30 33 35 36 35 34 35 36 35 35 35 34 31 30 31 31 32 32 31 33 35 35 37 37 37 36 34 33 31 30 28 24
28 28 28 28 27 27 27 26 26 24 23 22 21 21 22 23 24 24 24 22 23 29 33 35 36 36 36 37 38 37 37 36 34 32 33 34 35 34 33 35 37 37 38 38 37 37 35 32 30 29 27 23
31 32 32 33 33 33 33 33 32 31 29 27 25 23 22 23 25 26 26 25 23 24 29 31 34 37 38 39 40 40 40 39 37 36 35 36 37 38 37 36 38 40 39 39 39 38 36 32 29 28 26 23
33 35 36 37 38 38 38 38 38 37 36 34 32 28 25 23 24 26 27 27 26 24 25 27 28 35 39 40 41 42 43 42 39 37 37 38 40 40 40 39 39 42 42 41 40 39 37 33 29 27 26 24
32 35 38 40 40 39 40 41 42 42 41 41 39 34 30 26 24 25 27 27 28 27 26 25 25 29 36 40 41 42 44 44 43 40 37 39 42 43 43 43 42 42 43 43 42 42 40 36 31 28 26 24
30 33 38 40 39 38 39 41 42 43 43 43 42 39 35 30 26 25 26 27 27 27 27 27 26 25 29 35 39 43 46 46 45 43 40 38 42 45 45 45 45 44 45 45 44 44 42 38 34 29 27 25
27 30 35 37 36 35 36 38 40 41 41 41 40 39 36 33 28 25 26 28 27 27 27 28 28 27 27 28 32 38 44 47 48 46 43 41 42 46 47 47 48 47 47 47 46 45 43 40 36 31 29 27
26 30 33 33 31 30 32 35 37 38 38 39 39 36 33 31 29 26 26 28 29 28 28 27 28 29 28 28 28 31 35 42 49 49 46 46 45 47 50 50 50 50 50 49 47 44 43 40 37 33 31 30
29 32 33 32 30 28 29 31 32 33 34 37 38 35 31 29 27 27 27 28 30 30 29 28 27 28 29 29 28 29 29 34 43 48 51 51 48 48 50 51 52 51 50 49 47 44 42 41 38 36 34 32
30 32 32 31 30 29 28 29 29 29 31 34 34 32 30 28 27 28 28 29 31 31 31 29 27 26 27 28 28 28 28 30 36 42 47 52 52 51 51 52 52 53 52 51 49 45 42 41 40 38 36 34
31 31 30 29 29 29 28 29 29 28 29 30 30 28 27 26 26 27 29 29 31 32 32 31 29 27 25 26 27 28 27 29 33 36 40 45 51 54 54 52 52 54 54 53 51 48 44 42 41 40 38 36
32 30 28 27 27 27 27 28 29 29 29 29 27 25 24 24 25 25 27 28 29 31 32 32 31 29 26 24 25 28 28 28 29 34 37 41 46 52 55 53 51 53 56 55 53 51 48 44 42 41 40 39
32 30 28 26 26 26 26 27 27 27 27 27 25 24 23 23 26 27 27 28 29 30 31 33 32 31 29 26 24 26 28 29 27 30 36 40 43 47 52 53 51 50 53 55 54 53 51 48 44 42 42 42
35 35 33 30 28 27 26 25 24 23 23 23 23 23 23 23 26 29 28 29 30 30 31 32 32 32 30 27 25 24 26 29 28 27 31 38 42 45 49 52 52 51 51 55 56 54 52 51 48 46 45 45
36 36 35 31 29 29 29 28 27 25 24 24 24 24 25 24 25 28 29 29 31 32 32 32 31 30 30 27 25 24 25 27 29 28 27 32 39 45 49 52 55 54 53 55 55 54 54 54 52 50 48 47
33 33 32 30 30 30 32 33 32 31 29 26 25 25 26 26 25 25 27 29 30 32 32 33 31 29 28 27 25 24 24 25 27 29 28 28 32 40 47 50 53 54 53 53 54 55 53 50 51 51 51 50
32 32 31 31 32 33 35 36 35 33 30 28 26 25 25 25 25 23 25 29 30 30 31 32 31 29 28 27 26 25 23 23 24 28 29 28 28 31 39 45 47 48 50 51 52 50 44 43 46 45 48 52
31 31 31 32 33 36 38 40 38 35 33 30 27 25 25 24 24 23 24 27 29 28 29 31 31 30 30 29 29 28 26 24 22 24 27 29 28 27 31 38 43 44 47 48 46 42 37 37 35 34 43 54
32 32 33 34 36 37 39 39 37 35 34 32 28 26 26 25 25 25 26 27 29 28 28 31 32 31 31 30 29 29 30 29 26 23 23 26 28 29 29 31 37 42 46 48 46 42 37 30 26 33 42 43
33 32 32 33 33 34 34 33 32 31 29 29 28 28 27 28 28 28 28 29 30 29 28 30 32 32 31 31 30 29 30 31 30 28 24 23 25 28 29 28 31 38 43 46 48 47 43 36 32 38 39 32
32 31 30 31 31 31 30 30 30 29 29 29 29 28 28 30 30 28 27 27 28 29 29 28 29 31 32 32 31 30 29 30 31 31 28 24 23 25 27 28 29 34 39 43 46 47 48 46 39 34 34 35
Wind_Direction
243 252 244 239 245 244 249 256 253 251 249 249 247 240 238 242 243 238 235 234 235 233 231 227 225 227 225 221 221 216 215 220 220 223 219 210 211 213 226 225 210 213 222 239 259 247 218 199 189 190 193 196
242 248 242 235 239 239 243 257 264 263 258 252 246 241 240 242 244 242 238 235 237 241 239 230 225 226 230 226 220 216 216 221 221 222 220 212 211 209 222 229 219 217 228 243 250 241 228 208 193 189 191 198
274 264 253 244 244 243 244 252 261 268 269 265 253 242 239 240 241 242 240 237 239 245 245 237 229 228 232 231 226 223 216 218 223 222 219 216 218 212 215 226 224 221 228 239 244 242 233 217 204 196 193 200
321 310 293 272 262 256 253 249 249 253 256 261 260 251 241 237 239 243 242 239 239 241 246 242 233 232 235 232 230 232 222 217 222 225 223 220 221 215 212 219 222 226 228 232 241 243 233 223 217 212 210 206
328 329 321 312 305 286 270 257 250 247 247 247 251 255 248 239 236 242 245 243 240 239 245 243 235 235 237 234 230 233 227 222 220 224 228 224 223 218 213 214 218 229 232 230 236 241 238 230 227 228 226 218
318 321 319 318 318 312 303 286 270 266 264 252 243 246 249 244 239 240 244 246 244 242 244 243 242 243 243 237 231 231 227 228 226 222 228 226 223 221 217 214 214 225 234 233 233 240 244 240 239 243 238 231
337 325 316 311 311 309 307 304 297 292 292 279 256 246 244 243 242 242 243 244 246 247 246 244 245 246 248 244 235 230 222 227 232 223 226 229 224 221 219 218 216 224 232 235 236 239 244 245 248 251 247 241
15 2 346 327 316 312 306 304 302 298 299 299 289 269 252 245 241 242 244 245 245 246 248 246 245 244 246 247 240 234 223 222 229 223 222 230 233 223 218 223 223 227 233 237 240 239 240 245 249 251 250 247
22 19 15 5 348 334 321 309 303 301 298 300 300 293 278 264 252 245 243 245 247 247 248 248 247 245 245 247 243 241 234 227 225 220 218 225 235 229 221 226 228 231 235 239 243 242 240 243 247 249 250 251
11 11 12 11 7 360 352 337 323 313 303 300 299 298 292 284 279 267 251 244 246 249 249 249 248 247 246 248 247 245 243 240 230 220 218 222 229 231 228 230 232 235 239 242 245 245 243 244 246 249 250 250
359 359 359 358 357 356 355 353 348 339 327 315 305 300 295 291 289 287 281 262 249 248 249 249 249 247 246 247 249 248 247 247 242 227 220 221 226 230 230 232 235 238 242 246 247 248 248 249 250 251 251 249
352 351 349 347 345 343 343 342 342 342 341 335 324 312 301 295 291 289 293 288 268 254 251 250 249 248 248 247 249 249 249 249 248 240 228 222 225 229 231 232 235 238 243 246 248 249 250 252 254 253 253 250
349 347 345 344 340 337 335 334 333 332 332 332 331 326 314 303 296 291 288 290 289 272 259 256 250 248 248 248 248 248 248 249 248 246 237 228 225 228 231 231 234 237 240 244 247 249 252 253 254 254 254 249
345 344 343 342 341 338 335 333 330 328 326 325 324 323 320 312 303 297 290 285 288 285 275 271 260 251 248 245 246 247 247 248 248 247 242 233 226 226 229 231 233 235 238 241 245 248 251 252 252 253 253 249
342 341 341 341 340 338 335 333 331 328 325 324 322 320 316 313 306 299 295 289 284 283 281 280 273 260 252 248 245 247 247 247 248 248 244 237 229 225 226 230 232 234 237 240 243 246 249 250 249 249 250 246
340 338 338 339 338 335 332 331 329 327 325 323 321 319 313 308 303 296 294 293 288 283 278 275 275 269 261 255 250 248 245 243 247 247 246 242 233 227 225 227 232 234 237 239 242 245 247 248 247 244 244 240
337 334 334 335 335 331 328 326 324 324 322 320 319 316 311 305 298 291 286 288 288 287 282 274 271 271 269 265 258 255 247 241 242 243 243 244 235 228 225 226 229 233 236 238 241 243 245 246 245 241 239 234
334 331 331 332 330 324 320 318 319 318 316 314 314 311 306 298 291 284 279 280 283 284 284 279 271 267 268 269 266 265 258 248 244 240 240 243 237 230 228 227 228 231 234 237 238 240 242 244 244 241 237 231
331 330 329 327 324 318 313 311 311 312 309 308 309 306 299 290 281 275 271 273 278 279 280 281 276 268 265 266 265 264 265 260 251 244 240 239 236 233 230 229 229 231 233 235 236 238 240 243 243 242 239 234
328 328 326 323 319 313 308 307 306 304 303 303 305 302 294 285 275 270 269 269 274 278 277 278 277 272 265 263 263 260 261 262 256 250 246 240 234 233 232 230 231 232 233 235 235 236 238 241 244 244 242 238
326 324 323 319 314 309 305 305 304 302 302 302 303 300 292 286 278 274 274 272 273 277 277 278 278 276 270 263 260 257 257 261 259 254 251 246 238 233 231 230 231 232 233 234 236 235 235 238 242 244 244 242
322 320 319 316 313 308 304 303 302 302 302 301 302 299 294 291 288 284 283 283 280 278 277 278 278 279 277 269 261 255 253 256 260 257 253 250 245 238 234 231 232 233 233 233 235 235 235 235 238 241 243 245
323 319 317 315 314 310 305 304 301 301 302 301 299 299 297 295 295 294 293 293 290 285 282 281 279 280 282 278 269 260 253 249 254 260 256 251 248 243 238 234 234 235 235 234 234 235 236 236 238 240 243 245
327 325 321 317 317 315 310 307 304 304 304 301 298 300 301 296 293 294 296 296 295 293 290 288 285 282 282 282 277 269 260 251 248 254 258 255 250 245 241 237 236 235 235 234 233 234 236 237 239 240 243 245
327 327 323 318 317 317 313 310 308 306 302 300 298 297 297 296 292 290 291 294 296 296 296 295 292 286 282 282 282 276 267 257 250 249 254 256 252 246 240 236 234 233 232 230 229 230 232 235 237 239 241 244
324 324 321 315 312 312 311 309 307 305 301 299 300 297 294 293 293 290 289 291 294 297 298 297 295 289 285 284 285 283 274 264 254 249 250 253 253 248 241 236 232 229 227 225 225 227 228 230 233 236 238 240
320 320 318 311 307 307 309 308 305 303 299 297 298 299 296 292 291 292 290 290 292 295 295 296 296 292 286 284 285 285 282 275 263 254 250 252 255 252 246 240 234 229 225 225 225 224 222 224 227 231 234 236
319 318 315 310 307 306 307 308 304 300 297 296 295 297 298 295 292 291 289 289 290 291 290 291 294 293 287 284 284 285 284 281 276 265 255 253 254 255 251 245 240 235 230 227 223 216 213 219 222 226 232 234
318 316 314 312 312 310 308 308 305 302 300 297 292 292 297 299 294 290 287 287 287 287 288 287 290 293 291 288 287 285 283 281 280 275 266 259 256 256 255 251 246 241 236 230 224 218 213 211 214 223 231 233
318 315 314 317 318 314 310 310 310 310 306 299 293 292 295 297 296 294 291 288 284 284 286 286 287 290 291 291 290 288 285 282 279 276 274 269 264 259 257 258 253 248 244 236 228 223 220 219 222 226 227 226
318 315 317 321 321 314 308 307 309 311 309 305 302 300 298 298 298 298 295 290 285 281 282 284 285 286 287 289 290 291 289 286 281 275 273 273 271 265 259 259 258 253 251 244 234 227 225 225 227 230 229 226